Terminal Aerodrome Forecast
Issued by NWS Dodge City, KS

Home | Current Version | Previous Version | Text Only | Print | Product List | Glossary On
Versions: 1 2 3 4 5 6 7 8 9 10 11 12 13 14 15 16 17 18 19 20 21 22 23 24 25 26 27 28 29 30 31 32 33 34 35 36 37 38 39 40 41 42 43 44 45
000
FTUS43 KDDC 230903 AAA
TAFDDC
TAF AMD
KDDC 230903Z 2309/2406 17019KT P6SM BKN150
     FM231200 33020G25KT P6SM SCT010 BKN020
     FM231700 35031G41KT 5SM -RASN BKN025
     FM232100 33025G35KT P6SM SCT060 BKN150
     FM240200 31015G23KT P6SM SKC=

USA.gov is the U.S. government's official web portal to all federal, state and local government web resources and services.